Location: Ajisawe
(8.4333°N, 4.3833°E)
Time: 22:38:12
(UTC+00:00)

Vanguard 2 Rocket - Pass Details

Date: 21 April 2021
Orbit: 554 x 3326 km, 32.9° (Epoch: 16 May)

Event Time Altitude Azimuth Distance (km) Brightness Sun altitude
Rises 11:12:54 0° 251° (WSW) 5,182 10.7 82.2°
Reaches altitude 10° 11:15:51 10° 255° (WSW) 4,498 10.5 82.8°
Maximum altitude 11:29:19 60° 332° (NNW) 3,135 10.9 85.4°
Drops below altitude 10° 11:49:05 10° 49° (NE) 6,282 11.3 85.9°
Sets 11:54:12 0° 53° (NE) 7,267 11.5 85.2°
